CDT,Max TemperatureF,Mean TemperatureF,Min TemperatureF,Max Dew PointF,MeanDew PointF,Min DewpointF,Max Humidity, Mean Humidity, Min Humidity, Max Sea Level PressureIn, Mean Sea Level PressureIn, Min Sea Level PressureIn, Max VisibilityMiles, Mean VisibilityMiles, Min VisibilityMiles, Max Wind SpeedMPH, Mean Wind SpeedMPH, Max Gust SpeedMPH,PrecipitationIn, CloudCover, Events, WindDirDegrees
2013-9-1,83,74,67,73,64,55,100,73,39,30.01,29.92,29.78,10,10,2,20,8,32,0.79,1,Rain-Thunderstorm,6
2013-9-2,80,69,59,63,57,49,100,70,34,30.12,30.06,30.01,10,10,5,8,4,,0.01,0,,16
2013-9-3,82,69,56,63,59,56,100,72,42,30.13,30.08,30.04,10,9,1,8,2,,0.00,0,,174
2013-9-4,84,74,64,66,62,60,91,72,47,30.19,30.13,30.06,10,10,10,9,5,,0.00,0,Rain,182
2013-9-5,85,75,65,69,64,57,100,74,39,30.22,30.16,30.12,10,10,7,12,4,,0.00,3,Rain,156
2013-9-6,89,76,64,70,66,61,98,70,51,30.12,30.05,29.95,10,10,7,17,8,23,0.00,0,,174
2013-9-7,96,82,70,73,68,64,94,68,35,29.96,29.92,29.85,10,10,7,14,9,20,0.00,0,Thunderstorm,205
2013-9-8,91,80,69,75,72,67,100,80,44,29.93,29.87,29.81,10,8,2,8,3,,0.00,0,,117
2013-9-9,98,84,72,74,62,56,97,51,25,29.89,29.85,29.82,10,10,10,22,11,29,0.00,0,,213
2013-9-10,95,82,70,66,62,58,71,52,32,30.06,29.96,29.89,10,10,10,20,10,25,0.03,2,Thunderstorm,207
2013-9-11,83,76,70,75,71,66,100,89,64,30.15,30.10,30.07,10,9,3,9,3,,0.47,5,Rain-Thunderstorm,3
2013-9-12,79,70,61,71,59,49,100,69,35,30.22,30.17,30.12,10,9,5,12,5,17,0.13,3,Rain,21
2013-9-13,74,64,53,54,50,47,96,63,38,30.25,30.17,30.09,10,10,10,8,3,,0.00,0,,77
2013-9-14,78,64,50,55,51,46,87,64,38,30.10,30.02,29.90,10,10,10,18,7,23,0.00,0,,168
2013-9-15,68,64,61,67,59,53,100,80,58,30.23,30.03,29.87,10,10,5,17,9,22,0.08,6,Rain-Thunderstorm,26
2013-9-16,63,58,54,58,54,52,97,83,72,30.33,30.26,30.20,10,10,7,12,7,20,0.00,6,Rain,94
2013-9-17,79,68,58,70,64,58,100,94,69,30.21,30.05,29.90,10,6,0,16,7,22,0.22,7,Rain-Thunderstorm,154
2013-9-18,91,78,67,69,67,63,100,73,39,29.93,29.82,29.73,10,9,5,23,14,32,0.00,1,Thunderstorm,189
2013-9-19,85,73,61,70,64,52,100,76,51,30.00,29.83,29.76,10,10,1,29,12,40,0.61,3,Rain-Thunderstorm,257
2013-9-20,70,61,52,53,47,42,88,64,36,30.10,30.03,29.98,10,10,10,18,9,25,0.00,0,,330
2013-9-21,75,62,48,52,47,44,95,63,38,30.05,29.98,29.89,10,10,4,12,3,17,0.00,0,,170
2013-9-22,79,64,50,56,52,49,100,68,35,29.94,29.89,29.84,10,10,10,22,9,28,0.00,0,,174
2013-9-23,77,64,52,54,51,49,95,64,39,29.87,29.81,29.74,10,10,10,24,10,31,0.00,0,Thunderstorm,151
2013-9-24,73,64,57,58,56,53,97,72,55,29.91,29.82,29.71,10,10,10,14,8,23,0.00,3,,42
2013-9-25,80,67,54,61,58,54,100,77,45,29.93,29.86,29.78,10,8,0,13,6,20,0.00,0,Fog,129
2013-9-26,86,73,60,62,58,54,100,64,34,29.85,29.82,29.77,10,10,10,25,14,34,0.00,0,,157
2013-9-27,88,78,69,60,58,55,68,54,33,29.89,29.85,29.79,10,10,5,28,17,36,0.00,0,,169
2013-9-28,72,62,52,67,52,42,100,69,38,30.08,29.91,29.70,10,10,2,23,14,31,0.15,3,Rain-Thunderstorm,275
2013-9-29,77,60,43,47,43,39,100,58,25,30.09,30.01,29.91,10,10,10,17,8,24,0.00,0,,203
2013-9-30,81,64,48,52,49,46,100,63,29,29.94,29.83,29.75,10,10,10,20,10,24,0.00,0,,193